• En España
  • Lista de países
  • Para 7 días
  • Temperatura del agua
  • Mapa Satelital
  • El tiempo en el mapa
  • Informadores
  • user-avatar
    Iniciar sesión

    Tiempo cada hora La-Plata

    Hoy, 19 Octubre, Viernes

    Tiempo Temperatura Precipitaciones Viento Presión Humedad
    00:00 +11°C° 0 mm 6 mps 766 mmHg 78%
    01:00 +11°C° 0 mm 6 mps 766 mmHg 82%
    02:00 +10°C° 0 mm 6 mps 766 mmHg 85%
    03:00 +10°C° 0 mm 6 mps 766 mmHg 88%
    04:00 +9°C° 0 mm 6 mps 766 mmHg 90%
    05:00 +9°C° 0 mm 6 mps 766 mmHg 92%
    06:00 +11°C° 0 mm 6 mps 767 mmHg 87%
    07:00 +13°C° 0 mm 6 mps 767 mmHg 81%
    08:00 +15°C° 0 mm 7 mps 767 mmHg 76%
    09:00 +16°C° 0 mm 7 mps 767 mmHg 71%
    10:00 +18°C° 0 mm 7 mps 767 mmHg 67%
    11:00 +20°C° 0 mm 7 mps 768 mmHg 62%
    12:00 +20°C° 0 mm 7 mps 767 mmHg 61%
    13:00 +20°C° 0 mm 7 mps 767 mmHg 61%
    14:00 +20°C° 0 mm 7 mps 767 mmHg 60%
    15:00 +18°C° 0 mm 7 mps 767 mmHg 62%
    16:00 +17°C° 0 mm 7 mps 766 mmHg 65%
    17:00 +16°C° 0 mm 7 mps 766 mmHg 67%
    18:00 +15°C° 0 mm 7 mps 767 mmHg 69%
    19:00 +14°C° 0 mm 6 mps 767 mmHg 71%
    20:00 +11°C° 0 mm 6 mps 767 mmHg 73%
    21:00 +11°C° 0 mm 6 mps 768 mmHg 73%
    22:00 +12°C° 0 mm 5 mps 768 mmHg 74%
    23:00 +12°C° 0 mm 5 mps 768 mmHg 75%

    Mañana, 20 Octubre, Sábado

    Tiempo Temperatura Precipitaciones Viento Presión Humedad
    00:00 +12°C° 0 mm 5 mps 768 mmHg 76%
    01:00 +12°C° 0 mm 5 mps 767 mmHg 78%
    02:00 +12°C° 0 mm 5 mps 767 mmHg 79%
    03:00 +12°C° 0 mm 5 mps 767 mmHg 79%
    04:00 +12°C° 0 mm 5 mps 767 mmHg 79%
    05:00 +12°C° 0 mm 5 mps 767 mmHg 79%
    06:00 +13°C° 0 mm 6 mps 767 mmHg 77%
    07:00 +14°C° 0 mm 6 mps 767 mmHg 74%
    08:00 +15°C° 0 mm 6 mps 767 mmHg 72%
    09:00 +16°C° 0 mm 5 mps 767 mmHg 70%
    10:00 +17°C° 0 mm 4 mps 767 mmHg 69%
    11:00 +17°C° 0 mm 4 mps 767 mmHg 67%
    12:00 +18°C° 0.1 mm 4 mps 766 mmHg 67%
    13:00 +18°C° 0.1 mm 4 mps 766 mmHg 66%
    14:00 +18°C° 0.1 mm 4 mps 765 mmHg 66%
    15:00 +18°C° 0.1 mm 4 mps 765 mmHg 70%
    16:00 +17°C° 0.1 mm 4 mps 765 mmHg 73%
    17:00 +17°C° 0.1 mm 4 mps 764 mmHg 77%
    18:00 +15°C° 0.5 mm 4 mps 764 mmHg 80%
    19:00 +14°C° 0.5 mm 4 mps 765 mmHg 83%
    20:00 +13°C° 0.5 mm 4 mps 765 mmHg 87%
    21:00 +14°C° 0.1 mm 4 mps 765 mmHg 87%
    22:00 +14°C° 0.1 mm 5 mps 764 mmHg 87%
    23:00 +14°C° 0.1 mm 5 mps 764 mmHg 88%

    Pasado mañana, 21 Octubre, Domingo

    Tiempo Temperatura Precipitaciones Viento Presión Humedad
    00:00 +14°C° 0 mm 5 mps 764 mmHg 88%
    01:00 +13°C° 0 mm 5 mps 763 mmHg 88%
    02:00 +13°C° 0 mm 5 mps 763 mmHg 88%
    03:00 +14°C° 0 mm 5 mps 763 mmHg 86%
    04:00 +14°C° 0 mm 5 mps 763 mmHg 83%
    05:00 +14°C° 0 mm 5 mps 763 mmHg 81%
    06:00 +14°C° 0 mm 5 mps 763 mmHg 79%
    07:00 +15°C° 0 mm 5 mps 763 mmHg 76%
    08:00 +15°C° 0 mm 5 mps 763 mmHg 74%
    09:00 +16°C° 0 mm 5 mps 763 mmHg 70%
    10:00 +18°C° 0 mm 4 mps 763 mmHg 67%
    11:00 +19°C° 0 mm 4 mps 762 mmHg 63%
    12:00 +20°C° 0 mm 4 mps 762 mmHg 60%
    13:00 +21°C° 0 mm 4 mps 761 mmHg 57%
    14:00 +24°C° 0 mm 3 mps 760 mmHg 53%
    15:00 +22°C° 0 mm 3 mps 760 mmHg 57%
    16:00 +22°C° 0 mm 3 mps 759 mmHg 61%
    17:00 +22°C° 0 mm 3 mps 759 mmHg 65%
    18:00 +20°C° 0 mm 3 mps 759 mmHg 71%
    19:00 +18°C° 0 mm 3 mps 760 mmHg 77%
    20:00 +17°C° 0 mm 3 mps 760 mmHg 83%
    21:00 +17°C° 0 mm 3 mps 760 mmHg 85%
    22:00 +16°C° 0 mm 3 mps 760 mmHg 87%
    23:00 +16°C° 0 mm 3 mps 760 mmHg 89%

    22 Octubre, Lunes

    Tiempo Temperatura Precipitaciones Viento Presión Humedad
    00:00 +16°C° 0 mm 3 mps 759 mmHg 89%
    01:00 +17°C° 0 mm 3 mps 759 mmHg 89%
    02:00 +17°C° 0 mm 3 mps 758 mmHg 89%
    03:00 +17°C° 0 mm 3 mps 758 mmHg 89%
    04:00 +17°C° 0 mm 2 mps 759 mmHg 89%
    05:00 +17°C° 0 mm 2 mps 759 mmHg 90%
    06:00 +18°C° 0 mm 2 mps 759 mmHg 85%
    07:00 +20°C° 0 mm 1 mps 759 mmHg 80%
    08:00 +22°C° 0 mm 1 mps 760 mmHg 76%
    09:00 +23°C° 0 mm 1 mps 760 mmHg 71%
    10:00 +24°C° 0 mm 1 mps 760 mmHg 66%
    11:00 +26°C° 0 mm 2 mps 760 mmHg 62%
    12:00 +25°C° 0.8 mm 2 mps 759 mmHg 67%
    13:00 +24°C° 0.8 mm 2 mps 759 mmHg 72%
    14:00 +22°C° 0.8 mm 3 mps 759 mmHg 77%
    15:00 +21°C° 1.9 mm 4 mps 759 mmHg 79%
    16:00 +19°C° 1.9 mm 5 mps 760 mmHg 80%
    17:00 +17°C° 1.9 mm 6 mps 760 mmHg 82%
    18:00 +16°C° 0.8 mm 7 mps 761 mmHg 79%
    19:00 +15°C° 0.8 mm 7 mps 762 mmHg 77%
    20:00 +14°C° 0.8 mm 7 mps 763 mmHg 74%
    21:00 +12°C° 0 mm 7 mps 763 mmHg 73%
    22:00 +13°C° 0 mm 6 mps 763 mmHg 73%
    23:00 +11°C° 0 mm 6 mps 764 mmHg 73%

    23 Octubre, Martes

    Tiempo Temperatura Precipitaciones Viento Presión Humedad
    00:00 +10°C° 0 mm 6 mps 764 mmHg 74%
    01:00 +9°C° 0 mm 6 mps 764 mmHg 76%
    02:00 +8°C° 0 mm 6 mps 764 mmHg 78%
    03:00 +8°C° 0 mm 6 mps 765 mmHg 80%
    04:00 +7°C° 0 mm 6 mps 765 mmHg 83%
    05:00 +7°C° 0 mm 6 mps 765 mmHg 85%
    06:00 +8°C° 0 mm 6 mps 766 mmHg 80%
    07:00 +9°C° 0 mm 6 mps 766 mmHg 74%
    08:00 +11°C° 0 mm 6 mps 767 mmHg 69%
    09:00 +13°C° 0 mm 6 mps 767 mmHg 64%
    10:00 +15°C° 0 mm 6 mps 767 mmHg 60%
    11:00 +16°C° 0 mm 6 mps 766 mmHg 56%
    12:00 +16°C° 0 mm 6 mps 766 mmHg 56%
    13:00 +17°C° 0 mm 6 mps 766 mmHg 56%
    14:00 +17°C° 0 mm 7 mps 766 mmHg 57%
    15:00 +16°C° 0 mm 7 mps 766 mmHg 60%
    16:00 +15°C° 0 mm 7 mps 766 mmHg 63%
    17:00 +14°C° 0 mm 7 mps 766 mmHg 66%
    18:00 +12°C° 0 mm 7 mps 766 mmHg 69%
    19:00 +10°C° 0 mm 6 mps 767 mmHg 73%
    20:00 +9°C° 0 mm 6 mps 767 mmHg 77%
    21:00 +8°C° 0 mm 5 mps 767 mmHg 78%
    22:00 +8°C° 0 mm 5 mps 767 mmHg 79%
    23:00 +8°C° 0 mm 5 mps 767 mmHg 80%

    24 Octubre, Miércoles

    Tiempo Temperatura Precipitaciones Viento Presión Humedad
    00:00 +8°C° 0 mm 5 mps 767 mmHg 81%
    01:00 +8°C° 0 mm 5 mps 766 mmHg 82%
    02:00 +7°C° 0 mm 4 mps 766 mmHg 83%
    03:00 +8°C° 0 mm 4 mps 766 mmHg 82%
    04:00 +8°C° 0 mm 4 mps 766 mmHg 80%
    05:00 +10°C° 0 mm 4 mps 766 mmHg 78%
    06:00 +10°C° 0 mm 5 mps 766 mmHg 74%
    07:00 +13°C° 0 mm 5 mps 767 mmHg 70%
    08:00 +15°C° 0 mm 6 mps 767 mmHg 66%
    09:00 +16°C° 0 mm 6 mps 766 mmHg 64%
    10:00 +17°C° 0 mm 6 mps 766 mmHg 62%
    11:00 +19°C° 0 mm 5 mps 765 mmHg 61%
    12:00 +19°C° 0 mm 5 mps 765 mmHg 60%
    13:00 +20°C° 0 mm 6 mps 764 mmHg 59%
    14:00 +20°C° 0 mm 6 mps 763 mmHg 58%
    15:00 +20°C° 0 mm 6 mps 763 mmHg 62%
    16:00 +19°C° 0 mm 6 mps 762 mmHg 65%
    17:00 +19°C° 0 mm 6 mps 762 mmHg 69%
    18:00 +17°C° 0 mm 6 mps 762 mmHg 72%
    19:00 +16°C° 0 mm 6 mps 763 mmHg 75%
    20:00 +15°C° 0 mm 6 mps 763 mmHg 78%
    21:00 +15°C° 0 mm 6 mps 763 mmHg 78%
    22:00 +16°C° 0 mm 6 mps 763 mmHg 77%
    23:00 +16°C° 0 mm 6 mps 763 mmHg 76%
    Mostrar más